Tracking 28895 objects as of 27-May-2024
HD Live streaming from Space Station
objects crossing your sky now

STARLINK-5651

Track STARLINK-5651 now!
10-day predictions
STARLINK-5651 is classified as:


NORAD ID: 55357
Int'l Code: 2023-013AC
Perigee: 564.9 km
Apogee: 567.4 km
Inclination: 43.0 °
Period: 95.8 minutes
Semi major axis: 6937 km
RCS: Unknown
Launch date: January 26, 2023
Source: United States (US)
Launch site: AIR FORCE EASTERN TEST RANGE (AFETR)
Your satellite tracking list
Your tracking list is empty




NASA's NSSDC Master Catalog

Two Line Element Set (TLE):
1 55357U 23013AC  24147.94594071  .00006544  00000-0  49884-3 0  9996
2 55357  43.0025 241.4347 0001797 289.2173  70.8475 15.02552806 74109
Source of the keplerian elements: AFSPC